Location: Bellerive
(46.9237°N, 7.0223°E)
Time: 00:26:12
(UTC+00:00)

STARLINK-1224 - Pass Details

Date: 09 April 2020
Orbit: 549 x 551 km, 53.0° (Epoch: 30 May)

Event Time Altitude Azimuth Distance (km) Brightness Sun altitude
Rises 20:45:58 0° 298° (WNW) 2,727 8.4 -23.7°
Reaches altitude 10° 20:48:15 10° 293° (WNW) 1,830 7.2 -24.0°
Enters shadow 20:51:43 48° 249° (WSW) 726 4.3 -24.4°
